QPF
0.00 0.00 0.00 0.00 0.00 0.00 0.00 0.00 0.00 0.00 0.00 0.00 0.00 0.00 0.00 0.00 0.00 0.00 0.00 0.00 0.00 0.00 0.00 0.00 0.00 0.00 0.00 0.00 0.00 0.00 0.00 0.00 0.00 0.01 0.01 0.01 0.01 0.02
0.00 0.00 0.00 0.00 0.00 0.00 0.00 0.00 0.00 0.00 0.00 0.00 0.00 0.00 0.00 0.00 0.00 0.00 0.00 0.00 0.00 0.00 0.00 0.00 0.00 0.00 0.00 0.00 0.00 0.00 0.00 0.01 0.01 0.01 0.01 0.01 0.02 0.02
0.00 0.00 0.00 0.00 0.00 0.00 0.00 0.00 0.00 0.00 0.00 0.00 0.00 0.00 0.00 0.00 0.00 0.00 0.00 0.00 0.00 0.00 0.00 0.00 0.00 0.00 0.00 0.00 0.00 0.00 0.00 0.00 0.00 0.00 0.01 0.01 0.01 0.01
0.00 0.00 0.00 0.00 0.00 0.00 0.00 0.00 0.00 0.00 0.00 0.00 0.00 0.00 0.00 0.00 0.00 0.00 0.00 0.00 0.00 0.00 0.00 0.00 0.00 0.00 0.00 0.00 0.00 0.00 0.00 0.00 0.00 0.00 0.00 0.00 0.01 0.01
0.00 0.00 0.00 0.00 0.00 0.00 0.00 0.00 0.00 0.00 0.00 0.00 0.00 0.00 0.00 0.00 0.00 0.00 0.00 0.00 0.00 0.00 0.00 0.00 0.00 0.00 0.00 0.00 0.00 0.00 0.00 0.00 0.00 0.00 0.00 0.01 0.01 0.01
0.00 0.00 0.00 0.00 0.00 0.00 0.00 0.00 0.00 0.00 0.00 0.00 0.00 0.00 0.00 0.00 0.00 0.00 0.00 0.00 0.00 0.00 0.00 0.00 0.00 0.00 0.01 0.00 0.00 0.00 0.00 0.00 0.00 0.01 0.01 0.01 0.01 0.01
0.00 0.00 0.00 0.00 0.00 0.00 0.00 0.00 0.00 0.00 0.00 0.00 0.00 0.00 0.00 0.00 0.00 0.00 0.00 0.00 0.00 0.00 0.00 0.00 0.00 0.00 0.01 0.00 0.00 0.00 0.00 0.00 0.01 0.01 0.01 0.01 0.01 0.01
0.00 0.00 0.00 0.00 0.00 0.00 0.00 0.00 0.00 0.00 0.00 0.00 0.00 0.00 0.00 0.00 0.00 0.00 0.00 0.00 0.00 0.00 0.00 0.00 0.00 0.00 0.01 0.00 0.00 0.00 0.00 0.00 0.01 0.01 0.01 0.01 0.00 0.01
0.00 0.00 0.00 0.00 0.00 0.00 0.00 0.00 0.00 0.00 0.00 0.00 0.00 0.00 0.00 0.00 0.00 0.00 0.00 0.00 0.00 0.00 0.01 0.00 0.00 0.00 0.00 0.00 0.00 0.00 0.00 0.00 0.01 0.01 0.00 0.01 0.00 0.00
0.00 0.00 0.00 0.00 0.00 0.00 0.00 0.00 0.00 0.00 0.00 0.00 0.00 0.00 0.00 0.00 0.00 0.00 0.00 0.00 0.00 0.00 0.00 0.00 0.00 0.00 0.00 0.01 0.00 0.00 0.00 0.00 0.00 0.01 0.00 0.00 0.01 0.01
0.00 0.00 0.00 0.00 0.00 0.00 0.00 0.00 0.00 0.00 0.00 0.00 0.00 0.00 0.00 0.00 0.00 0.00 0.00 0.00 0.00 0.00 0.00 0.00 0.00 0.00 0.00 0.00 0.00 0.00 0.00 0.00 0.00 0.01 0.01 0.00 0.00 0.01
0.00 0.00 0.00 0.00 0.00 0.00 0.00 0.00 0.00 0.00 0.00 0.00 0.00 0.00 0.00 0.00 0.00 0.00 0.01 0.01 0.00 0.01 0.00 0.00 0.00 0.00 0.00 0.00 0.00 0.00 0.00 0.00 0.00 0.00 0.01 0.00 0.00 0.00
0.00 0.00 0.00 0.00 0.00 0.00 0.00 0.00 0.00 0.00 0.00 0.00 0.00 0.00 0.00 0.00 0.00 0.00 0.01 0.01 0.00 0.01 0.01 0.00 0.00 0.00 0.00 0.00 0.00 0.00 0.00 0.00 0.00 0.00 0.00 0.00 0.00 0.00
0.00 0.00 0.00 0.00 0.00 0.00 0.00 0.00 0.00 0.00 0.00 0.00 0.00 0.00 0.00 0.00 0.00 0.00 0.00 0.00 0.00 0.00 0.01 0.00 0.00 0.00 0.00 0.00 0.00 0.00 0.00 0.00 0.00 0.00 0.00 0.00 0.00 0.00
0.00 0.00 0.00 0.00 0.00 0.00 0.00 0.00 0.00 0.00 0.00 0.00 0.00 0.00 0.00 0.00 0.00 0.00 0.00 0.00 0.00 0.00 0.00 0.00 0.00 0.00 0.00 0.00 0.00 0.00 0.00 0.00 0.00 0.00 0.00 0.00 0.00 0.00
0.00 0.00 0.00 0.00 0.00 0.00 0.00 0.00 0.00 0.00 0.00 0.00 0.00 0.00 0.00 0.00 0.00 0.00 0.00 0.00 0.00 0.00 0.00 0.00 0.00 0.00 0.00 0.00 0.00 0.00 0.00 0.01 0.00 0.00 0.00 0.00 0.00 0.00
0.00 0.00 0.00 0.00 0.00 0.00 0.00 0.00 0.00 0.00 0.00 0.00 0.00 0.00 0.00 0.00 0.00 0.00 0.00 0.00 0.00 0.00 0.00 0.00 0.00 0.00 0.00 0.00 0.00 0.00 0.00 0.00 0.00 0.00 0.00 0.00 0.00 0.00
0.00 0.00 0.00 0.00 0.00 0.00 0.00 0.00 0.00 0.00 0.00 0.00 0.00 0.00 0.00 0.00 0.00 0.00 0.00 0.01 0.00 0.00 0.00 0.00 0.00 0.00 0.00 0.00 0.00 0.00 0.00 0.00 0.00 0.00 0.00 0.00 0.00 0.00
0.00 0.00 0.00 0.00 0.00 0.00 0.00 0.00 0.00 0.00 0.00 0.00 0.00 0.00 0.00 0.00 0.00 0.00 0.00 0.01 0.00 0.00 0.00 0.00 0.00 0.00 0.00 0.00 0.00 0.00 0.00 0.00 0.00 0.00 0.00 0.00 0.00 0.00
0.00 0.00 0.00 0.00 0.00 0.00 0.00 0.00 0.00 0.00 0.00 0.00 0.00 0.00 0.00 0.00 0.00 0.00 0.00 0.01 0.00 0.00 0.00 0.00 0.00 0.00 0.00 0.01 0.00 0.00 0.00 0.00 0.00 0.00 0.00 0.01 0.00 0.00
0.00 0.00 0.00 0.00 0.00 0.00 0.00 0.00 0.00 0.00 0.00 0.00 0.00 0.00 0.00 0.00 0.00 0.00 0.00 0.00 0.00 0.00 0.00 0.00 0.00 0.00 0.00 0.00 0.00 0.00 0.00 0.00 0.00 0.00 0.00 0.00 0.00 0.00
0.00 0.00 0.00 0.00 0.00 0.00 0.00 0.00 0.00 0.00 0.00 0.00 0.00 0.00 0.00 0.00 0.00 0.00 0.00 0.00 0.00 0.00 0.00 0.00 0.00 0.00 0.00 0.00 0.00 0.00 0.00 0.00 0.00 0.00 0.00 0.00 0.00 0.00
0.00 0.00 0.00 0.00 0.00 0.00 0.00 0.00 0.00 0.00 0.00 0.00 0.00 0.00 0.00 0.00 0.00 0.00 0.00 0.00 0.00 0.00 0.00 0.00 0.00 0.00 0.00 0.00 0.00 0.00 0.00 0.00 0.00 0.00 0.00 0.00 0.00 0.00
MSLP
1027.04 1027.57 1027.60 1027.72 1027.46 1027.62 1027.30 1027.57 1027.54 1027.20 1026.39 1025.50 1025.71 1025.50 1025.40 1025.19 1024.95 1024.77 1024.52 1023.90 1023.30 1022.90 1022.48 1021.99 1021.57 1021.12 1020.54 1019.99 1019.51 1018.95 1018.40 1017.76 1017.04 1016.28 1015.48 1014.64 1013.72 1012.80
1027.23 1027.71 1028.10 1028.26 1028.02 1027.67 1027.82 1027.75 1027.65 1027.64 1027.40 1026.78 1026.58 1026.23 1025.81 1025.41 1025.16 1025.03 1024.55 1024.00 1023.43 1022.90 1022.40 1021.85 1021.49 1021.02 1020.49 1020.11 1019.76 1019.28 1018.78 1018.06 1017.37 1016.60 1015.70 1014.84 1013.92 1013.06
1027.67 1028.00 1028.46 1028.16 1028.31 1028.21 1028.18 1028.03 1027.85 1027.85 1027.86 1027.29 1026.90 1026.32 1026.07 1025.95 1025.47 1025.17 1024.64 1024.25 1023.67 1022.92 1022.50 1021.97 1021.41 1020.96 1020.54 1020.42 1020.09 1019.61 1018.89 1018.23 1017.48 1016.65 1015.86 1015.06 1014.25 1013.37
1028.24 1028.43 1028.59 1028.66 1028.68 1028.76 1028.76 1028.47 1028.35 1028.22 1028.13 1027.64 1027.23 1026.78 1026.50 1026.26 1025.93 1025.66 1025.14 1024.58 1024.07 1023.19 1022.55 1021.96 1021.52 1021.04 1020.73 1020.68 1020.21 1019.73 1019.05 1018.32 1017.65 1016.80 1015.91 1015.16 1014.25 1013.32
1028.56 1028.64 1028.85 1029.08 1029.34 1029.40 1029.20 1029.06 1028.96 1028.75 1028.40 1028.25 1027.70 1027.25 1027.06 1026.65 1026.45 1026.09 1025.70 1025.02 1024.31 1023.48 1022.56 1022.13 1021.61 1021.17 1021.09 1020.87 1020.39 1019.84 1019.20 1018.48 1017.67 1016.78 1016.01 1015.35 1014.66 1013.78
1028.45 1028.53 1028.88 1029.29 1029.60 1029.75 1029.66 1029.59 1029.37 1029.12 1028.82 1028.60 1028.22 1027.93 1027.49 1027.07 1026.98 1026.64 1025.80 1025.28 1024.56 1023.74 1022.94 1022.37 1021.73 1021.35 1021.19 1021.02 1020.72 1020.03 1019.40 1018.58 1017.68 1016.85 1016.11 1015.70 1015.21 1014.41
1028.23 1028.22 1028.66 1029.13 1029.52 1029.84 1029.98 1029.73 1029.58 1029.40 1029.25 1029.04 1028.82 1028.37 1027.90 1027.60 1027.32 1027.04 1026.52 1025.67 1024.79 1023.96 1023.38 1022.67 1022.19 1021.68 1021.38 1021.36 1020.90 1020.30 1019.60 1018.81 1018.02 1017.19 1016.58 1016.20 1015.74 1015.13
1028.29 1028.35 1028.56 1029.39 1029.37 1029.86 1029.79 1029.62 1029.50 1029.50 1029.52 1029.44 1029.23 1028.83 1028.58 1028.29 1027.81 1027.39 1026.64 1025.77 1024.82 1024.12 1023.70 1023.20 1022.74 1022.24 1021.64 1021.51 1021.16 1020.52 1019.88 1019.16 1018.44 1017.78 1017.10 1016.67 1016.32 1015.83
1028.42 1028.55 1028.56 1029.14 1029.71 1029.99 1029.76 1029.18 1028.37 1028.96 1029.61 1029.86 1029.40 1029.25 1028.86 1028.41 1027.94 1027.36 1026.70 1026.13 1025.51 1024.57 1024.30 1023.70 1023.41 1022.95 1022.24 1021.76 1021.34 1020.80 1020.26 1019.65 1019.00 1018.32 1017.58 1016.98 1016.71 1016.35
1028.23 1028.41 1028.83 1029.57 1030.32 1030.25 1030.09 1029.48 1028.90 1029.26 1029.55 1029.43 1029.48 1029.18 1028.72 1028.18 1027.86 1027.28 1026.73 1026.19 1025.54 1024.83 1024.66 1024.33 1023.79 1023.44 1022.64 1022.04 1021.64 1021.18 1020.72 1020.16 1019.54 1018.89 1018.35 1017.73 1017.25 1016.80
1027.63 1028.02 1028.52 1029.25 1030.15 1030.26 1030.28 1029.84 1029.63 1029.95 1029.64 1029.44 1029.18 1028.72 1028.25 1027.78 1027.37 1027.07 1026.61 1026.05 1025.64 1025.10 1025.12 1025.06 1024.32 1023.94 1023.04 1022.39 1022.08 1021.63 1021.16 1020.65 1020.13 1019.56 1019.01 1018.46 1017.92 1017.33
1027.81 1028.90 1029.41 1029.73 1030.14 1030.25 1030.28 1030.08 1030.08 1030.11 1029.79 1029.47 1028.97 1028.50 1028.04 1027.56 1027.20 1027.04 1026.76 1026.45 1026.06 1025.34 1025.35 1025.17 1024.78 1024.35 1023.53 1022.69 1022.42 1022.11 1021.69 1021.17 1020.71 1020.27 1019.68 1019.07 1018.47 1018.08
1028.11 1028.67 1029.54 1030.01 1030.11 1030.13 1030.16 1030.09 1030.06 1029.95 1029.76 1029.48 1029.04 1028.63 1028.19 1027.77 1027.43 1027.04 1026.70 1026.46 1026.27 1025.85 1025.55 1025.29 1025.15 1024.76 1024.37 1023.60 1022.86 1022.44 1022.08 1021.63 1021.32 1020.84 1020.35 1019.83 1019.31 1018.77
1028.39 1028.84 1029.63 1029.68 1029.79 1029.89 1030.01 1029.82 1029.76 1029.76 1029.68 1029.42 1029.13 1028.77 1028.40 1027.97 1027.59 1027.05 1026.58 1026.20 1026.02 1025.93 1025.53 1025.23 1025.22 1024.93 1024.65 1024.07 1023.74 1022.86 1022.28 1022.06 1021.69 1021.43 1021.08 1020.64 1020.14 1019.68
1028.44 1029.03 1029.06 1029.33 1029.42 1029.57 1029.49 1029.62 1029.89 1029.60 1029.49 1029.48 1029.27 1028.90 1028.58 1028.11 1027.57 1027.07 1026.43 1026.01 1025.81 1025.63 1025.32 1025.08 1024.99 1024.70 1024.77 1024.55 1024.24 1023.73 1022.81 1022.45 1022.04 1021.82 1021.55 1021.32 1021.03 1020.50
1028.66 1028.85 1028.96 1029.10 1029.13 1029.20 1029.42 1029.33 1029.31 1029.52 1029.43 1029.35 1029.23 1028.93 1028.55 1028.13 1027.75 1027.32 1026.74 1026.32 1026.03 1025.82 1025.34 1025.02 1024.84 1024.75 1024.89 1024.59 1024.40 1024.09 1023.56 1022.96 1022.54 1022.11 1022.11 1021.91 1021.68 1021.39
1027.89 1028.17 1028.71 1028.73 1028.76 1028.82 1028.95 1029.02 1029.17 1029.28 1029.28 1029.22 1029.08 1028.87 1028.61 1028.29 1027.84 1027.39 1026.82 1026.38 1026.38 1026.10 1025.75 1025.37 1025.28 1025.29 1025.30 1024.89 1024.61 1024.40 1023.92 1023.35 1022.93 1022.50 1022.16 1022.30 1022.29 1022.05
1027.98 1028.28 1028.41 1028.55 1028.81 1029.04 1029.05 1029.03 1029.19 1029.35 1029.26 1029.12 1029.00 1028.86 1028.74 1028.46 1028.02 1027.48 1026.95 1026.57 1026.45 1026.27 1026.10 1025.75 1025.39 1025.19 1025.15 1025.21 1024.72 1024.81 1024.28 1023.86 1023.28 1022.62 1022.45 1022.49 1022.66 1022.56
1027.74 1027.97 1028.01 1028.29 1028.58 1028.46 1028.51 1028.78 1029.16 1029.21 1029.08 1029.00 1028.96 1028.89 1028.81 1028.56 1028.15 1027.74 1027.16 1026.83 1026.58 1026.44 1026.26 1025.91 1025.61 1025.42 1025.27 1025.09 1025.08 1024.84 1024.99 1024.21 1023.68 1023.12 1022.87 1022.60 1022.71 1022.87
1027.40 1027.58 1027.53 1027.58 1027.77 1027.97 1028.20 1028.57 1028.88 1029.04 1029.02 1028.98 1028.95 1028.92 1028.81 1028.60 1028.20 1027.80 1027.33 1027.00 1026.76 1026.53 1026.33 1025.97 1025.77 1025.72 1025.55 1025.23 1025.14 1025.10 1024.92 1024.63 1024.18 1023.90 1023.37 1022.75 1022.73 1022.39
1026.76 1026.81 1026.69 1026.93 1027.26 1027.57 1027.95 1028.42 1028.80 1028.97 1028.98 1028.91 1028.87 1028.86 1028.76 1028.59 1028.20 1027.81 1027.38 1027.04 1026.81 1026.59 1026.32 1026.03 1025.67 1025.30 1025.13 1024.72 1025.02 1025.06 1025.05 1024.68 1024.49 1024.27 1023.79 1023.30 1022.97 1022.99
1025.54 1025.77 1025.96 1026.37 1026.83 1027.26 1027.63 1028.07 1028.44 1028.64 1028.74 1028.70 1028.74 1028.77 1028.65 1028.50 1028.22 1027.84 1027.47 1027.20 1026.83 1026.54 1026.31 1025.83 1025.43 1025.21 1025.10 1025.15 1025.11 1024.98 1024.84 1024.57 1024.37 1024.09 1023.90 1023.87 1023.84 1023.69
1024.81 1025.08 1025.43 1025.86 1026.41 1026.90 1027.28 1027.66 1027.98 1028.31 1028.41 1028.41 1028.47 1028.51 1028.39 1028.27 1028.03 1027.73 1027.39 1027.08 1026.76 1026.48 1026.12 1025.93 1025.45 1025.20 1025.15 1025.11 1025.20 1024.88 1024.72 1024.50 1024.28 1024.11 1023.87 1023.55 1023.46 1023.31
Thickness
5543 5536 5534 5531 5528 5526 5525 5517 5513 5508 5511 5513 5503 5497 5488 5481 5474 5466 5458 5450 5444 5436 5426 5417 5405 5396 5391 5386 5381 5376 5371 5366 5361 5357 5353 5351 5351 5353
5537 5532 5526 5522 5522 5521 5515 5511 5508 5503 5496 5496 5488 5482 5475 5468 5461 5453 5446 5439 5431 5423 5413 5405 5396 5389 5384 5378 5370 5363 5358 5354 5348 5344 5341 5340 5339 5340
5530 5526 5519 5519 5515 5513 5509 5506 5502 5497 5488 5484 5479 5474 5466 5458 5452 5442 5435 5427 5419 5412 5403 5395 5388 5382 5376 5368 5360 5352 5348 5343 5339 5337 5334 5332 5330 5329
5522 5519 5515 5513 5509 5505 5500 5498 5493 5487 5480 5476 5471 5464 5456 5448 5440 5430 5422 5413 5406 5400 5393 5386 5379 5373 5366 5357 5350 5344 5339 5335 5332 5330 5329 5326 5325 5323
5516 5514 5509 5505 5499 5495 5492 5488 5483 5478 5472 5464 5459 5452 5444 5437 5427 5417 5409 5402 5395 5388 5383 5376 5370 5364 5355 5347 5340 5334 5331 5328 5326 5325 5323 5320 5317 5315
5513 5510 5505 5499 5492 5487 5484 5478 5474 5468 5462 5455 5448 5440 5434 5426 5416 5408 5401 5391 5386 5379 5373 5367 5361 5354 5347 5338 5330 5327 5324 5322 5321 5320 5318 5312 5307 5304
5511 5507 5502 5495 5488 5481 5476 5472 5466 5459 5453 5445 5436 5431 5425 5416 5406 5397 5390 5384 5376 5371 5363 5359 5352 5346 5338 5328 5323 5319 5317 5316 5315 5314 5310 5305 5299 5295
5506 5503 5499 5489 5485 5478 5472 5467 5462 5453 5445 5437 5427 5420 5411 5402 5394 5386 5380 5376 5375 5365 5354 5347 5340 5334 5328 5320 5314 5312 5311 5310 5310 5307 5304 5299 5294 5290
5501 5496 5493 5485 5478 5471 5466 5463 5462 5451 5436 5425 5419 5408 5401 5395 5388 5380 5372 5365 5357 5353 5342 5332 5328 5321 5317 5312 5308 5306 5304 5304 5303 5302 5299 5297 5291 5288
5498 5493 5487 5480 5470 5465 5459 5455 5451 5439 5428 5419 5409 5402 5396 5389 5381 5373 5366 5358 5348 5340 5332 5319 5318 5312 5308 5304 5301 5299 5297 5297 5297 5296 5294 5292 5288 5286
5497 5490 5485 5476 5467 5460 5453 5448 5440 5429 5421 5412 5405 5399 5392 5385 5378 5370 5361 5354 5345 5335 5323 5312 5308 5300 5299 5298 5295 5293 5292 5291 5291 5290 5288 5287 5285 5284
5494 5482 5477 5470 5462 5455 5448 5441 5432 5423 5416 5408 5401 5394 5388 5380 5372 5363 5355 5345 5335 5330 5318 5305 5300 5295 5292 5294 5291 5287 5287 5286 5286 5284 5283 5283 5283 5282
5488 5482 5470 5462 5456 5450 5443 5436 5427 5419 5411 5403 5397 5390 5383 5375 5367 5358 5349 5339 5328 5319 5312 5302 5293 5286 5284 5285 5287 5284 5282 5281 5281 5280 5279 5278 5278 5278
5480 5474 5464 5458 5452 5445 5438 5430 5421 5415 5407 5399 5391 5384 5376 5369 5361 5354 5345 5336 5326 5316 5309 5300 5291 5286 5282 5282 5278 5281 5280 5278 5276 5275 5274 5273 5273 5272
5472 5466 5461 5454 5448 5442 5435 5427 5417 5411 5402 5393 5385 5378 5371 5364 5357 5350 5342 5333 5324 5315 5307 5300 5293 5288 5282 5279 5275 5275 5277 5275 5273 5271 5270 5268 5267 5267
5466 5461 5456 5451 5445 5439 5432 5424 5415 5404 5396 5388 5380 5374 5367 5360 5353 5346 5338 5329 5320 5312 5306 5300 5293 5287 5281 5277 5273 5272 5271 5272 5270 5269 5266 5263 5262 5260
5464 5459 5452 5447 5442 5436 5428 5420 5410 5399 5392 5384 5377 5370 5363 5355 5349 5342 5335 5328 5318 5310 5304 5298 5291 5284 5278 5275 5269 5268 5268 5267 5266 5265 5263 5258 5256 5255
5458 5453 5448 5443 5435 5428 5421 5412 5403 5394 5387 5381 5374 5367 5358 5351 5344 5338 5332 5326 5317 5309 5302 5296 5292 5285 5280 5274 5271 5265 5264 5262 5262 5263 5260 5255 5251 5248
5453 5448 5444 5438 5430 5424 5417 5408 5398 5390 5384 5378 5370 5362 5354 5347 5341 5334 5329 5323 5316 5309 5302 5296 5291 5286 5282 5276 5269 5265 5258 5258 5258 5258 5255 5253 5248 5243
5448 5444 5440 5435 5429 5422 5414 5404 5395 5387 5380 5373 5366 5358 5351 5344 5338 5332 5327 5321 5314 5308 5302 5297 5292 5285 5281 5277 5268 5265 5261 5257 5255 5252 5251 5251 5247 5244
5445 5442 5440 5433 5426 5419 5410 5400 5391 5382 5376 5369 5363 5355 5348 5341 5336 5330 5325 5320 5314 5309 5303 5298 5294 5290 5286 5282 5273 5269 5264 5259 5256 5252 5250 5249 5247 5240
5447 5442 5438 5430 5422 5414 5406 5397 5388 5380 5373 5367 5360 5352 5346 5339 5333 5328 5323 5317 5314 5310 5305 5302 5298 5293 5288 5283 5277 5273 5268 5264 5259 5256 5252 5248 5241 5232
5444 5439 5433 5427 5418 5410 5403 5394 5386 5377 5370 5365 5358 5351 5345 5338 5333 5328 5323 5317 5313 5310 5307 5303 5300 5296 5290 5286 5279 5277 5273 5268 5263 5259 5255 5252 5248 5245